sat.trackr.live / text

‹ back to catalog

STARLINK-34257

NORAD 65225 · 2025-176AD

PAYLOAD ACTIVE UNKNOWN

§ Identity

Operator
Country
US
Launch date
2025-08-14
Launch site
AFETR
Launch vehicle
Mass (kg)
RCS (m²)

Purposes: comms

External: N2YO · Heavens-Above · Gunter

§ Orbital elements

Epoch: 2026-05-24T10:22:04.562400Z

Period
93.85 min
Inclination
53.1586°
Eccentricity
0.0000950
Mean motion
15.34395957 rev/d
Perigee alt
462.1 km
Apogee alt
463.4 km
Semi-major
6,840.9 km
B*
4.7325e-4
RAAN
160.4319°
Arg perigee
79.0934°
Mean anomaly
281.0176°
Rev number
4,466

§ Raw data

STARLINK-342571 65225U 25176AD  26144.43199725  .00015645  00000+0  47325-3 0  99922 65225  53.1586 160.4319 0000950  79.0934 281.0176 15.34395957 44666

JSON: /api/v1/satellites/65225 · /tle

For live sub-satellite position, see the globe view (requires WebGL).

§ Visibility from observer

Set your observer location to see the next 7 days of passes ≥ 10°. The values pass through the URL so the page stays shareable.

No JS? Fill the form by hand. The geolocation button needs JavaScript.